User: anonymous   Login
Location: Caltech
(34.1382°N, 118.1253°W)
Time: 04:16:06
(UTC-08:00)
Language:

TMSAT-1 - Orbit

View from above orbital plane
View from above orbital plane
View from above satellite
View from above satellite

Ground track
Ground track

The orbit data is extracted from the following two-line orbital elements,

1 25396U 98043C   16338.11077854  .00000028  00000-0  30620-4 0  9998
2 25396  98.5610 280.8140 0002815 154.9614 205.1702 14.24419598956256
Epoch (UTC): 03 December 2016 02:39:31
Eccentricity: 0.0002815
inclination: 98.5610°
perigee height: 808 km
apogee height: 812 km
right ascension of ascending node: 280.8140°
argument of perigee: 154.9614°
revolutions per day: 14.24419598
mean anomaly at epoch: 205.1702°
orbit number at epoch: 95625

The dashed part of the orbit path shows where the satellite is in the earth's shadow,  

DLR